Flag for Germany Weather past 2 weeks in Neumünster, Schleswig-Holstein, Germany

Now
47 °F

Overcast.


Feels Like: 43 °F
Forecast: 36 / 42 °F
Wind: 8 mph from West

Location: Itzehoe

Current Time: Mar 1, 2015 at 4:09:24 PM

Latest Report: Mar 1, 2015 at 3:00 PM


Visibility: 22 mi

Pressure: 29.44 "Hg

Humidity: 70%

Dew point: 38 °F

Location of NeumünsterLocation

Historic Weather in Neumünster — Graph

°F

Neumünster temperature yesterday

Maximum temperature yesterday: 44 °F (at 2:00 PM)
Minimum temperature yesterday: 31 °F (at 2:00 AM)
Average temperature yesterday: 37 °F

Past Weeks' High & Low Weather Summary

 TemperatureHumidityPressure
High47 °F (Mar 1, 3:00 PM)100% (Feb 17, 5:00 PM)30.67 "Hg (Feb 17, 5:00 PM)
Low28 °F (Feb 17, 8:00 AM)57% (Feb 19, 2:00 PM)29.23 "Hg (Feb 21, 11:00 AM)
Average38 °F87%29.91 "Hg
* Reported Feb 14 3:00 PM — Mar 1 3:00 PM, Neumünster, Weather by CustomWeather, © 2015

Note: Actual official high and low records may vary slightly from our data, if they occured in-between our weather recording intervals... More about our weather records

Advertising

Neumünster weather history for previous 24 hours

 ConditionsComfort  
Time TempWeatherWind HumidityBarometerVisibility
3:00 PM
Sun, Mar 1
47 °FOvercast.8 mph70%29.44 "Hg22 mi
2:00 PM47 °FOvercast.9 mph72%29.41 "Hg22 mi
12:00 PM44 °FLow clouds.6 mph94%29.41 "Hg7 mi
11:00 AM42 °FLow clouds.7 mph96%29.41 "Hg6 mi
10:00 AM40 °FLow clouds.7 mph95%29.41 "Hg4 mi
9:00 AM39 °FLow clouds.7 mph95%29.41 "Hg9 mi
8:00 AM38 °FLow clouds.7 mph95%29.41 "Hg3 mi
6:00 AM37 °FOvercast.6 mph89%29.50 "Hg3 mi
5:00 AM38 °FOvercast.6 mph79%29.50 "Hg6 mi
3:00 AM40 °FOvercast.6 mph66%29.61 "Hg22 mi
2:00 AM39 °FOvercast.6 mph67%29.65 "Hg19 mi
12:00 AM38 °FOvercast.6 mph70%29.74 "Hg19 mi
11:00 PM
Sat, Feb 28
38 °FPassing clouds.6 mph70%29.78 "Hg19 mi
9:00 PM38 °FClear.5 mph69%29.86 "Hg19 mi
8:00 PM39 °FClear.3 mph69%29.89 "Hg17 mi
6:00 PM41 °FPassing clouds.5 mph69%29.91 "Hg11 mi
5:00 PM42 °FPartly sunny.6 mph68%29.93 "Hg9 mi
Weather by CustomWeather, © 2015

See weather overviewHow to use our weather pages